Stations météo

réclame
Mon MeteoGroup
Glasgow/Bishopton, Grande-Bretagne (3134): Température de l'air & dewpoint: 18.01.2018 09:00:00 - 24.01.2018 09:00:00 (GMT)Glasgow/Bishopton, Grande-Bretagne (3134): Vitesse du vent & gusts: 18.01.2018 09:00:00 - 24.01.2018 09:00:00 (GMT)Glasgow/Bishopton, Grande-Bretagne (3134): Direction du vent: 18.01.2018 09:00:00 - 24.01.2018 09:00:00 (GMT)Glasgow/Bishopton, Grande-Bretagne (3134): reduced air pressure: 18.01.2018 09:00:00 - 24.01.2018 09:00:00 (GMT)Glasgow/Bishopton, Grande-Bretagne (3134): visibility: 18.01.2018 09:00:00 - 24.01.2018 09:00:00 (GMT)Glasgow/Bishopton, Grande-Bretagne (3134): Ensoleillement: 18.01.2018 09:00:00 - 24.01.2018 09:00:00 (GMT)Glasgow/Bishopton, Grande-Bretagne (3134): Quantités de précipitations: 18.01.2018 09:00:00 - 24.01.2018 09:00:00 (GMT)
Date & Time tt [°C] td [°C] ff [km/h] ff [knt] fx [km/h] fx [knt] dd ppp [hPa] vv [km] sd [min] rr [mm]
24.01.2018 09:00:00 5,9 2,1 39 21 65 35 WSW 983,5 27 0 0,0
24.01.2018 08:00:00 5,5 3,3 31 17 76 41 WSW 983,1 45 0 0,6
24.01.2018 07:00:00 7,2 4,0 29 16 67 36 WSW 982,5 25 0 0,0
24.01.2018 06:00:00 8,4 6,7 35 19 59 32 SW 981,8 17 0 0,0
24.01.2018 05:00:00 9,0 7,6 44 24 83 45 SSW 981,5 9 0 2,0
24.01.2018 04:00:00 9,5 8,7 37 20 68 37 SSW 983,4 7 0 2,0
24.01.2018 03:00:00 8,8 8,3 28 15 61 33 SW 986,6 4,2 0 5,0
24.01.2018 02:00:00 7,3 7,0 16 9 46 25 S 989,3 4,7 0 4,4
24.01.2018 01:00:00 6,9 6,1 24 13 - - SSE 992,3 6 0 2,6
24.01.2018 00:00:00 6,4 5,5 16 9 - - SSW 996,9 4,8 - 2,0
23.01.2018 23:00:00 7,1 4,9 26 14 46 25 SW 997,8 13 0 0,0
23.01.2018 22:00:00 6,4 4,3 13 7 - - SSW 999,0 14 0 0,0
23.01.2018 21:00:00 5,6 4,0 16 9 - - SSW 999,4 22 0 0,0
23.01.2018 20:00:00 5,7 3,6 16 9 - - SW 999,5 27 0 0,0
23.01.2018 19:00:00 6,3 3,3 15 8 46 25 WSW 999,5 25 0 0,0
23.01.2018 18:00:00 6,8 4,4 28 15 48 26 W 998,7 30 0 0,0
23.01.2018 17:00:00 6,9 4,6 16 9 52 28 WSW 997,8 45 0 0,4
23.01.2018 16:00:00 8,9 6,1 11 6 - - WSW 997,1 16 0 0,0
23.01.2018 15:00:00 9,3 7,1 21 11 - - W 997,2 13 6 0,0
23.01.2018 14:00:00 9,7 7,5 22 12 - - W 997,2 15 0 0,2
23.01.2018 13:00:00 9,8 8,3 16 9 - - WSW 997,4 12 0 0,0
23.01.2018 12:00:00 9,7 9,0 22 12 48 26 WSW 997,4 30 0 1,4
23.01.2018 11:00:00 10,0 9,5 29 16 59 32 WSW 996,8 4,4 0 3,6
23.01.2018 10:00:00 10,1 9,7 29 16 54 29 SW 996,7 10 0 1,0
23.01.2018 09:00:00 9,7 9,5 26 14 - - SSW 997,4 13 0 2,8
23.01.2018 08:00:00 8,7 8,5 16 9 - - S 998,9 8 0 2,0
23.01.2018 07:00:00 8,3 8,3 11 6 - - SSE 999,3 2,8 0 0,4
23.01.2018 06:00:00 7,4 7,3 11 6 - - SE 1000,5 8 0 0,4
23.01.2018 05:00:00 6,9 6,8 9 5 - - ESE 1002,2 4,0 0 0,8
23.01.2018 04:00:00 7,0 6,5 9 5 - - SSE 1003,5 3,5 0 1,6
23.01.2018 03:00:00 7,7 6,1 16 9 - - S 1004,3 14 0 0,0
23.01.2018 02:00:00 - - - - - - - - - - 0,2
23.01.2018 01:00:00 6,0 5,6 13 7 - - S 1006,6 3,5 0 0,2
23.01.2018 00:00:00 6,4 4,9 13 7 - - SSW 1007,7 23 - 0,0
22.01.2018 23:00:00 6,8 5,2 18 10 - - SSW 1007,7 18 0 0,0
22.01.2018 22:00:00 6,3 5,1 15 8 - - SW 1008,0 13 0 0,0
22.01.2018 21:00:00 6,4 4,7 22 12 - - WSW 1008,5 15 0 0,0
22.01.2018 20:00:00 6,2 4,6 8 4 - - SSW 1008,8 13 0 0,0
22.01.2018 19:00:00 6,5 3,7 9 5 - - WSW 1008,8 16 0 0,0
22.01.2018 18:00:00 6,5 4,8 16 9 - - W 1008,6 8 0 0,0
22.01.2018 17:00:00 6,4 4,6 13 7 - - WSW 1007,9 10 0 0,0
22.01.2018 16:00:00 6,8 4,5 16 9 - - W 1006,9 12 0 0,0
22.01.2018 15:00:00 6,6 4,4 16 9 - - WSW 1006,1 11 6 0,0
22.01.2018 14:00:00 6,5 4,3 22 12 - - W 1005,8 11 18 0,0
22.01.2018 13:00:00 6,1 4,7 21 11 - - W 1005,3 11 6 0,0
22.01.2018 12:00:00 6,1 4,2 18 10 - - W 1004,9 16 0 0,0
22.01.2018 11:00:00 5,6 4,0 22 12 - - W 1004,2 19 0 0,0
22.01.2018 10:00:00 6,0 3,6 21 11 - - WSW 1003,4 10 0 0,0
22.01.2018 09:00:00 5,8 3,9 21 11 46 25 WSW 1002,4 10 0 0,0
22.01.2018 08:00:00 4,5 3,6 13 7 - - SW 1002,0 9 0 0,2
22.01.2018 07:00:00 4,8 3,2 15 8 - - SW 1001,3 12 0 0,0
22.01.2018 06:00:00 4,9 3,3 15 8 - - WSW 1000,8 16 0 0,0
22.01.2018 05:00:00 4,5 3,1 18 10 - - SW 1000,6 13 0 0,0
22.01.2018 04:00:00 4,7 3,2 15 8 - - WSW 1000,1 12 0 0,0
22.01.2018 03:00:00 4,3 3,4 15 8 - - SW 999,9 12 0 0,0
22.01.2018 02:00:00 4,5 3,2 15 8 - - SSW 999,5 14 0 1,0
22.01.2018 01:00:00 4,8 4,2 11 6 - - WSW 999,2 8 0 4,2
22.01.2018 00:00:00 4,2 3,9 15 8 - - SW 999,2 7 - 0,0
21.01.2018 23:00:00 4,0 3,6 16 9 - - SW 999,2 14 0 0,0
21.01.2018 22:00:00 2,1 2,1 9 5 - - WSW 999,3 11 0 0,0
21.01.2018 21:00:00 0,5 0,5 4 2 - - WNW 999,0 14 0 0,0
21.01.2018 20:00:00 0,3 0,2 8 4 - - WNW 999,0 3,8 0 0,0
21.01.2018 19:00:00 0,2 0,1 9 5 - - NNW 998,7 2,0 0 0,0
21.01.2018 18:00:00 0,6 0,5 4 2 - - SSE 998,7 1,1 0 0,2
21.01.2018 17:00:00 0,6 0,5 13 7 - - E 999,2 1,7 0 0,0
21.01.2018 16:00:00 0,4 0,2 11 6 - - ESE 1000,1 1,9 0 0,0
21.01.2018 15:00:00 0,3 0,1 13 7 - - ESE 1001,4 5 0 0,0
21.01.2018 14:00:00 0,2 0,1 13 7 - - ESE 1003,1 2,1 0 0,0
21.01.2018 13:00:00 0,0 -0,1 9 5 - - E 1004,4 0,5 0 0,0
21.01.2018 12:00:00 -0,5 -0,8 0 0 - - N 1006,1 1,7 0 0,0
21.01.2018 11:00:00 -0,6 -1,6 0 0 - - N 1007,3 2,3 0 0,0
21.01.2018 10:00:00 -1,2 -2,1 0 0 - - N 1008,3 18 0 0,0
21.01.2018 09:00:00 -2,1 -2,7 0 0 - - N 1009,1 7 0 0,0
21.01.2018 08:00:00 -2,4 -2,9 0 0 - - N 1009,1 6 0 0,0
21.01.2018 07:00:00 -2,6 -3,1 0 0 - - N 1009,8 7 0 0,0
21.01.2018 06:00:00 -2,6 -3,0 0 0 - - N 1010,3 7 0 0,0
21.01.2018 05:00:00 -2,8 -3,0 0 0 - - N 1011,1 5 0 0,0
21.01.2018 04:00:00 -2,8 -3,0 0 0 - - N 1011,5 2,3 0 0,0
21.01.2018 03:00:00 -2,8 -3,0 0 0 - - N 1011,3 4,7 0 0,0
21.01.2018 02:00:00 -2,7 -2,9 0 0 - - N 1011,3 7 0 0,0
21.01.2018 01:00:00 -3,1 -3,4 0 0 - - N 1011,5 7 0 0,0
21.01.2018 00:00:00 -3,2 -3,5 2 1 - - ESE 1010,6 12 - 0,0
20.01.2018 23:00:00 -2,9 -3,3 8 4 - - NW 1010,2 45 0 0,0
20.01.2018 22:00:00 -2,7 -3,1 4 2 - - N 1009,8 17 0 0,0
20.01.2018 21:00:00 -2,2 -2,9 8 4 - - NNW 1008,6 40 0 0,0
20.01.2018 20:00:00 -1,5 -1,9 13 7 - - NW 1008,1 50 0 0,0
20.01.2018 19:00:00 -1,1 -1,4 9 5 - - WNW 1007,2 45 0 0,0
20.01.2018 18:00:00 -1,6 -1,8 5 3 - - NNW 1006,0 27 0 0,0
20.01.2018 17:00:00 -0,8 -1,0 8 4 - - NW 1004,5 6 0 0,0
20.01.2018 16:00:00 0,0 -0,8 5 3 - - NW 1003,2 14 48 0,0
20.01.2018 15:00:00 -0,2 -0,9 9 5 - - NNW 1002,2 17 0 0,0
20.01.2018 14:00:00 1,2 0,4 9 5 - - N 1001,1 22 6 0,0
20.01.2018 13:00:00 2,0 0,8 4 2 - - WNW 1000,2 15 54 1,8
20.01.2018 12:00:00 1,7 0,3 2 1 - - W 999,5 15 42 0,0
20.01.2018 11:00:00 0,6 0,3 4 2 - - E 999,3 23 0 0,0
20.01.2018 10:00:00 -0,3 -0,6 0 0 - - N 999,0 40 0 0,0
20.01.2018 09:00:00 -0,7 -1,1 2 1 - - S 998,8 35 0 0,0
20.01.2018 08:00:00 -0,2 -0,5 4 2 - - WSW 998,2 40 0 0,0
20.01.2018 07:00:00 -0,4 -0,9 8 4 - - NNW 997,9 45 0 0,0
20.01.2018 06:00:00 -0,4 -1,2 5 3 - - NW 998,1 45 0 0,0
20.01.2018 05:00:00 0,8 -0,3 8 4 - - W 997,8 50 0 0,0
20.01.2018 04:00:00 1,1 0,3 13 7 - - WSW 998,3 45 0 0,0
20.01.2018 03:00:00 0,5 0,3 4 2 - - WSW 998,6 35 0 0,0
20.01.2018 02:00:00 0,2 0,0 4 2 - - E 998,6 22 0 0,0
20.01.2018 01:00:00 0,2 -0,1 8 4 - - NNE 998,7 0,9 0 1,2
20.01.2018 00:00:00 1,1 0,6 4 2 - - N 998,9 50 - 1,4
19.01.2018 23:00:00 1,3 0,9 11 6 - - SW 998,9 4,2 0 0,2
19.01.2018 22:00:00 1,0 0,6 11 6 - - SSW 999,6 40 0 0,0
19.01.2018 21:00:00 0,4 0,0 4 2 - - SSE 999,8 30 0 0,0
19.01.2018 20:00:00 1,0 0,2 9 5 - - W 1000,4 3,0 0 0,0
19.01.2018 19:00:00 0,6 -0,2 5 3 - - SW 999,9 50 0 0,0
19.01.2018 18:00:00 0,7 -0,1 11 6 - - NW 999,7 50 0 0,0
19.01.2018 17:00:00 0,3 -0,2 5 3 - - ESE 999,1 50 0 0,2
19.01.2018 16:00:00 1,1 0,5 11 6 46 25 WSW 999,0 50 0 0,6
19.01.2018 15:00:00 1,8 0,8 8 4 - - SW 998,5 17 0 0,0
19.01.2018 14:00:00 2,0 0,7 18 10 - - W 998,4 35 24 0,0
19.01.2018 13:00:00 2,7 1,7 8 4 - - SW 998,5 45 18 0,2
19.01.2018 12:00:00 1,8 0,4 16 9 - - W 999,4 11 6 0,0
19.01.2018 11:00:00 1,4 0,7 11 6 - - W 999,6 30 0 0,8
19.01.2018 10:00:00 2,2 0,6 13 7 - - WSW 999,1 40 0 1,0
19.01.2018 09:00:00 1,8 0,6 21 11 - - WSW 998,9 11 0 1,0
19.01.2018 08:00:00 1,4 0,9 8 4 - - SW 998,8 35 0 0,6
19.01.2018 07:00:00 0,9 0,6 8 4 - - S 998,9 2,8 0 0,0
19.01.2018 06:00:00 0,9 0,4 13 7 - - W 999,5 2,7 0 0,2
19.01.2018 05:00:00 1,2 0,6 16 9 - - S 999,1 45 0 0,2
19.01.2018 04:00:00 1,1 0,5 16 9 - - S 999,3 50 0 0,4
19.01.2018 03:00:00 1,5 0,8 15 8 - - SSW 999,6 40 0 0,2
19.01.2018 02:00:00 1,0 0,5 15 8 - - SW 999,6 50 0 0,0
19.01.2018 01:00:00 0,9 0,3 8 4 - - SSW 999,7 50 0 0,8
19.01.2018 00:00:00 1,8 0,9 13 7 - - WSW 999,4 22 - 0,0
18.01.2018 23:00:00 1,8 0,5 13 7 - - WSW 999,4 50 0 0,0
18.01.2018 22:00:00 0,5 0,1 8 4 - - NNW 999,4 50 0 0,4
18.01.2018 21:00:00 0,7 0,2 13 7 - - NW 999,2 5 0 0,2
18.01.2018 20:00:00 1,0 0,3 9 5 - - W 998,9 45 0 0,0
18.01.2018 19:00:00 1,0 0,2 9 5 - - W 998,5 45 0 0,0
18.01.2018 18:00:00 1,1 0,7 11 6 - - W 998,0 50 0 0,0
18.01.2018 17:00:00 0,7 0,3 9 5 - - W 997,7 35 0 1,4
18.01.2018 16:00:00 1,4 0,6 9 5 - - NW 997,1 50 6 0,0
18.01.2018 15:00:00 1,9 1,4 8 4 - - NNW 996,6 50 0 0,0
18.01.2018 14:00:00 1,2 0,4 2 1 - - NNE 996,0 45 18 0,2
18.01.2018 13:00:00 0,8 0,3 5 3 - - WSW 995,8 10 0 2,4
18.01.2018 12:00:00 2,3 1,6 9 5 - - N 995,6 16 24 0,2
18.01.2018 11:00:00 1,7 1,0 16 9 - - NNW 995,5 11 18 0,6
18.01.2018 10:00:00 2,7 1,3 15 8 - - W 994,5 45 12 0,0
18.01.2018 09:00:00 1,8 0,9 13 7 - - W 994,2 40 0 0,2

tt = Température de l'air
td = dewpoint
ff = Vitesse du vent
fx = gusts
dd = Direction du vent
ppp = reduced air pressure
vv = visibility
sd = Ensoleillement
rr = Quantités de précipitations

stations d'obs. à proximité